SCP
4 3 2 2 2 2 2 2 2 2 2 1 1 1 1 1 1 1 1 1 0 1 1 1 1 1 1 1 1 1 1 1 1 0 0 0 0 0 0 0 0 0 0
4 3 2 2 2 2 2 2 2 2 2 1 1 1 1 1 1 2 2 1 1 1 1 1 1 1 1 1 1 1 1 1 1 0 0 0 0 0 0 0 0 0 0
5 4 2 2 2 2 2 2 2 2 2 2 1 2 2 2 2 2 2 2 1 1 1 1 1 1 1 1 1 1 1 1 1 0 0 0 0 0 0 0 0 0 0
6 5 3 2 2 2 2 2 2 2 2 2 2 3 3 2 2 2 2 1 1 1 1 1 1 1 1 1 1 1 1 1 1 0 0 0 0 0 0 0 0 0 0
6 6 5 4 3 2 2 2 2 2 2 2 2 3 3 3 2 2 1 1 1 1 1 1 1 0 0 1 1 1 2 1 1 0 0 0 0 0 0 0 0 0 0
7 7 7 6 4 3 2 1 2 2 2 2 2 2 2 2 2 1 1 1 1 1 1 0 0 0 0 0 1 1 1 1 0 0 0 0 0 0 0 0 0 0 0
8 9 10 8 5 3 1 1 1 1 2 2 2 2 2 1 1 1 1 1 0 0 0 0 0 0 0 0 0 1 1 1 0 0 0 0 0 0 0 0 0 0 0
8 11 11 8 4 2 1 1 1 1 2 2 2 1 1 2 1 1 1 1 0 0 0 0 0 0 0 0 0 0 0 0 0 0 0 0 0 0 0 0 0 0 0
7 9 9 6 3 2 1 1 2 2 1 1 1 1 1 2 1 1 1 0 0 0 0 0 0 0 0 0 0 0 0 0 0 0 0 0 0 0 0 0 0 0 0
5 6 5 4 2 1 1 1 2 1 1 1 1 1 1 1 1 1 0 0 0 0 0 0 0 0 0 0 0 0 0 0 0 0 0 0 0 0 0 0 0 0 0
3 3 3 3 2 1 1 1 1 1 1 1 2 2 1 1 1 0 0 0 0 0 0 0 0 0 0 0 0 0 0 0 0 0 0 0 0 0 0 0 0 0 0
2 2 2 3 2 1 1 1 1 1 1 1 2 2 1 1 0 0 0 0 0 0 0 0 0 0 0 0 0 0 0 0 0 0 0 0 0 0 0 0 0 0 0
1 1 2 2 1 1 1 1 1 1 1 1 1 1 1 0 0 0 0 0 0 0 0 0 0 0 0 0 0 0 0 0 0 0 0 0 0 0 0 0 0 0 0
1 1 1 1 1 1 1 1 2 2 1 1 1 1 0 0 0 0 0 0 0 0 0 0 0 0 0 0 0 0 0 0 0 0 0 0 0 0 0 0 0 0 0
1 1 1 0 0 0 1 1 2 2 2 1 1 0 0 0 0 0 0 0 0 0 0 0 0 0 0 0 0 0 0 0 0 0 0 0 0 0 0 0 0 0 0
1 1 0 0 0 0 0 1 2 2 2 1 0 0 0 0 0 0 0 0 0 0 0 0 0 0 0 0 0 0 0 0 0 0 0 0 0 0 0 0 0 0 0
1 1 1 1 0 0 0 0 1 2 2 1 1 0 0 0 0 0 0 0 0 0 0 0 0 0 0 0 0 0 0 0 0 0 0 0 0 0 0 0 0 0 0
1 1 1 1 0 0 0 0 1 1 1 1 0 0 0 0 0 0 0 0 0 0 0 0 0 0 0 0 0 0 0 0 0 0 0 0 0 0 0 0 0 0 0
1 1 0 0 0 0 0 0 0 1 0 0 0 0 0 0 0 0 0 0 0 0 0 0 0 0 0 0 0 0 0 0 0 0 0 0 0 0 0 0 0 0 0
1 0 0 0 0 0 1 0 0 0 0 0 0 0 0 0 0 0 0 0 0 0 0 0 0 0 0 0 0 0 0 0 0 0 0 0 0 0 0 0 0 0 0
0 0 0 0 0 0 0 0 0 0 0 0 0 0 0 0 0 0 0 0 0 0 0 0 0 0 0 0 0 0 0 0 0 0 0 0 0 0 0 0 0 0 0
0 0 0 0 0 0 0 0 0 0 0 0 0 0 0 0 0 0 0 0 0 0 0 0 0 0 0 0 0 0 0 0 0 0 0 0 0 0 0 0 0 0 0
0 0 0 0 0 0 0 0 0 0 0 0 0 0 0 0 0 0 0 0 0 0 0 0 0 0 0 0 0 0 0 0 0 0 0 0 0 0 0 0 0 0 0
0 0 0 0 0 0 0 0 0 0 0 0 0 0 0 0 0 0 0 0 0 0 0 0 0 0 0 0 0 0 0 0 0 0 0 0 0 0 0 0 0 0 0
0 0 0 0 0 0 0 0 0 0 0 0 0 0 0 0 0 0 0 0 0 0 0 0 0 0 0 0 0 0 0 0 0 0 0 0 0 0 0 0 0 0 0
0 0 0 0 0 0 0 0 0 0 0 0 0 0 0 0 0 0 0 0 0 0 0 0 0 0 0 0 0 0 0 0 0 0 0 0 0 0 0 0 0 0 0
Wind_Speed
4 4 4 4 4 4 4 4 5 4 4 3 2 2 1 1 1 1 2 2 3 3 2 2 2 2 2 1 2 1 1 1 1 1 2 2 3 3 2 3 3 4 4
5 4 4 4 4 5 4 4 4 5 4 2 2 2 2 1 1 1 3 3 3 2 2 2 2 2 2 2 2 1 1 1 1 1 1 1 2 2 3 3 3 3 3
8 6 6 5 5 5 5 4 4 4 4 4 3 3 3 2 2 2 2 3 2 2 2 2 2 2 2 1 2 1 1 0 1 1 1 1 1 1 2 2 3 3 3
7 7 7 6 5 4 4 4 4 4 4 4 4 4 3 2 1 1 1 2 3 3 3 3 3 3 2 2 2 1 0 0 0 1 0 0 1 1 1 2 2 3 3
7 7 7 6 5 4 4 4 5 4 4 4 4 5 3 2 2 2 2 2 3 3 4 3 3 3 2 2 2 2 1 0 0 0 0 0 0 1 1 1 2 2 2
7 7 6 6 5 4 4 5 5 4 4 4 4 5 5 4 3 2 2 1 2 2 4 4 3 3 2 2 2 1 1 1 0 0 1 1 1 1 1 1 2 2 2
7 7 8 8 7 6 5 4 5 4 4 4 4 4 5 4 4 2 1 1 1 1 2 3 2 2 3 3 2 1 1 1 1 1 1 1 1 1 1 1 1 2 2
6 7 7 7 7 6 5 5 5 4 4 4 4 3 4 3 2 2 2 1 0 1 1 2 2 3 3 3 2 2 2 1 1 2 1 1 1 1 1 2 1 1 1
6 7 6 6 6 6 5 5 5 4 4 4 4 4 4 3 3 2 2 1 0 1 1 2 2 3 3 3 2 2 2 2 2 2 1 1 1 1 1 1 2 2 2
5 6 6 6 5 4 4 5 5 5 4 4 3 3 3 3 3 2 2 1 1 1 2 2 3 3 3 3 2 2 2 2 2 1 1 1 1 1 0 1 1 1 2
5 5 5 5 5 5 5 5 5 5 4 4 4 4 3 3 3 2 1 1 1 1 2 2 2 3 3 3 2 3 3 3 3 2 2 2 1 1 1 0 0 1 1
5 4 5 5 5 5 4 4 4 4 4 4 5 4 3 3 2 1 1 1 1 1 1 2 2 3 3 3 3 3 3 3 3 3 2 2 2 1 1 0 1 1 1
5 5 5 5 5 5 4 4 3 4 4 4 5 4 3 2 1 0 0 1 1 1 2 2 2 2 3 3 3 2 3 3 3 3 2 2 2 2 1 1 1 1 1
6 5 4 4 4 5 5 5 4 3 4 4 4 3 2 2 1 0 0 1 1 1 2 2 2 2 2 2 2 2 2 3 3 3 2 2 2 2 2 1 1 1 0
6 6 5 4 4 4 4 4 4 4 4 4 3 2 2 2 1 0 1 1 1 1 1 1 2 2 2 2 2 2 2 3 3 4 3 3 3 2 2 1 1 1 1
7 6 6 6 5 5 5 5 4 4 4 4 3 2 2 2 1 1 1 1 2 2 2 2 2 3 3 3 3 2 2 2 3 3 4 4 3 4 3 3 2 2 2
7 7 6 6 6 6 6 5 4 4 4 3 3 3 3 2 1 1 1 1 1 1 2 2 2 3 4 4 4 3 1 2 2 3 3 3 3 4 3 3 3 2 2
7 6 6 5 4 4 5 5 5 5 4 3 3 3 3 2 1 1 0 1 1 1 1 2 2 3 4 5 4 4 2 2 3 3 3 3 4 4 3 2 3 3 2
6 5 5 5 5 5 6 6 5 4 4 3 3 3 3 3 2 1 1 1 0 1 1 2 2 2 4 5 4 3 1 2 3 3 3 3 3 5 4 2 2 3 3
4 4 4 4 5 5 6 6 5 4 4 3 3 3 3 3 2 2 1 1 1 1 2 2 2 2 3 5 4 2 1 2 3 3 4 4 4 5 4 1 1 3 3
4 5 5 5 5 5 6 6 5 4 4 3 3 2 2 2 2 1 1 1 1 1 2 2 3 2 3 4 4 3 0 2 3 3 3 4 6 5 4 2 2 4 3
4 4 5 5 4 6 7 5 4 4 3 3 2 2 1 1 1 1 1 0 0 1 2 2 4 3 3 3 4 4 2 2 2 3 3 4 7 6 5 3 3 3 2
4 4 5 5 4 5 6 6 4 4 4 3 2 1 1 0 1 1 1 1 0 1 2 2 3 4 3 3 4 4 4 3 3 4 6 6 7 5 4 4 4 2 1
4 4 5 6 4 4 4 5 4 4 4 3 2 1 1 0 1 0 1 1 1 2 2 2 3 4 4 3 3 3 3 3 3 3 5 6 5 3 4 4 3 2 2
3 4 5 5 5 4 3 3 4 4 4 3 2 1 1 1 1 1 2 3 3 4 4 3 3 3 4 5 6 4 3 3 3 3 2 2 3 3 3 2 2 2 1
4 4 4 4 4 4 3 3 3 4 4 2 2 1 1 1 1 2 3 3 5 6 7 8 7 6 8 9 9 7 6 5 4 2 2 3 3 3 3 3 3 2 2
Wind_Direction
163 140 140 137 132 131 133 137 133 131 126 116 117 113 102 74 61 59 53 53 54 50 52 43 35 36 40 17 15 25 36 21 20 48 25 15 28 42 31 27 29 25 21
161 159 150 144 146 150 142 138 137 138 136 130 129 118 109 92 74 46 36 35 44 43 55 54 39 29 28 22 26 35 43 6 21 59 73 6 356 8 16 17 27 20 16
180 170 162 164 161 161 159 154 143 139 141 137 121 101 84 68 51 38 24 12 32 47 52 53 49 33 39 15 1 10 72 9 336 23 128 148 237 310 337 5 16 11 18
178 167 167 167 171 169 148 138 137 131 132 133 134 135 132 130 145 106 56 22 30 32 38 43 40 33 27 7 345 23 14 110 308 329 6 177 176 197 309 330 350 1 10
175 168 169 167 164 155 144 132 124 122 127 129 135 126 117 127 115 89 73 43 25 23 27 32 29 20 7 357 357 1 12 51 205 276 299 8 66 193 201 280 314 337 342
172 160 151 144 144 141 139 134 131 127 124 122 124 129 129 127 114 97 83 47 22 15 21 29 22 4 352 347 342 344 359 348 272 261 240 212 212 216 200 246 292 309 317
168 158 153 154 155 151 146 140 135 129 123 120 120 127 131 134 136 134 115 69 27 5 0 16 6 353 343 336 336 344 335 319 283 263 252 236 234 214 198 205 263 301 312
169 166 163 159 160 157 149 142 136 128 122 118 117 118 124 128 133 129 123 101 18 309 339 353 358 353 353 354 354 354 342 348 340 330 305 270 262 210 204 197 192 288 302
163 161 155 152 153 154 153 149 139 127 125 124 121 116 114 117 115 101 91 101 350 328 2 359 0 357 1 360 4 359 350 349 342 330 328 311 282 236 219 207 201 199 251
152 152 151 150 149 146 141 136 135 137 136 133 129 119 112 109 105 95 74 45 20 15 9 4 4 0 358 1 6 353 348 358 343 333 346 333 307 292 224 204 215 215 212
154 147 146 143 136 129 132 139 137 134 134 132 117 107 106 100 98 97 86 60 24 16 13 3 3 2 359 1 6 353 356 1 353 350 352 340 320 343 344 16 203 225 215
140 137 139 134 129 130 133 138 140 140 142 132 115 110 101 94 91 82 58 47 26 13 10 1 5 3 1 1 360 350 356 358 347 339 347 338 341 351 338 328 285 253 237
131 128 133 139 140 138 140 141 140 142 135 128 122 118 112 101 88 32 5 33 33 14 7 8 4 360 354 355 352 352 354 352 337 333 338 328 346 336 322 307 287 275 266
145 143 140 148 150 150 152 151 148 143 134 131 131 133 143 145 155 249 28 33 24 13 352 346 341 336 337 345 352 3 358 352 345 345 339 330 326 304 310 309 283 265 298
160 162 160 157 155 156 156 150 142 139 138 135 139 154 152 136 123 58 17 19 17 4 342 343 338 331 330 338 349 350 356 355 352 352 348 340 333 321 316 295 267 220 211
174 170 167 163 168 171 165 154 147 146 138 141 154 157 139 126 119 90 25 18 8 356 353 342 337 341 335 341 348 353 357 350 348 343 342 337 339 345 342 328 291 236 214
177 176 178 174 176 176 166 164 158 146 144 153 159 155 144 138 146 128 68 5 335 347 337 328 341 336 327 341 347 352 352 331 328 329 333 337 341 341 329 333 331 316 261
178 177 173 168 168 167 160 155 146 148 151 154 161 162 153 157 160 138 153 287 284 313 307 319 328 325 323 339 342 344 357 336 327 323 317 320 325 330 327 325 331 321 303
174 173 171 166 161 164 157 148 144 146 146 154 168 175 167 161 166 179 241 262 288 314 297 296 314 317 318 333 337 343 347 334 326 325 324 323 320 321 324 329 323 322 321
142 144 144 142 152 158 148 146 148 150 166 180 181 174 168 165 184 212 232 247 233 274 299 315 311 299 309 322 331 336 322 323 316 321 324 325 325 326 332 307 297 310 310
143 143 141 147 155 148 143 148 150 172 186 171 159 160 166 173 190 207 233 236 266 319 326 320 316 315 305 310 318 325 270 276 298 309 313 316 326 326 323 290 251 256 275
132 140 141 144 144 143 143 148 166 181 161 146 150 166 167 176 162 161 251 265 144 336 326 330 326 319 308 298 303 305 282 248 260 283 293 299 312 314 314 297 278 276 279
137 132 138 138 136 146 148 157 178 162 145 138 155 182 159 149 167 170 231 294 295 276 298 309 308 309 311 304 300 300 296 280 251 272 285 295 303 307 308 302 300 292 268
132 129 132 136 142 153 155 165 165 152 145 155 178 175 144 328 342 318 225 236 253 261 275 283 287 296 302 301 303 304 304 305 285 285 296 303 305 300 291 302 303 275 243
128 131 141 148 155 153 153 164 158 149 151 164 178 178 183 222 290 294 258 245 242 228 232 248 248 262 283 280 276 273 285 291 298 304 297 311 320 323 317 308 301 287 258
131 133 138 145 150 150 160 170 163 156 158 172 192 207 220 242 258 286 308 281 253 262 248 239 240 251 254 271 281 277 276 284 295 297 292 293 292 288 291 298 302 287 262